Weather History for KSUX - July, 2013

Change the Weather History Date:

Friday, July 5, 2013

  Actual Average Record
Temperature  
Mean Temperature 77 °F 74 °F  
Max Temperature 88 °F 86 °F 108 °F (1936)
Min Temperature 65 °F 63 °F 47 °F (1972)
Degree Days  
Heating Degree Days 0 0  
Month to date heating degree days 0 0  
Since 1 June heating degree days 40 27  
Since 1 July heating degree days 0 0  
Cooling Degree Days 12 9  
Month to date cooling degree days 33 45  
Year to date cooling degree days 284 297  
Since 1 June cooling degree days 228 233  
Growing Degree Days 26 (Base 50)    
Moisture  
Dew Point 61 °F    
Average Humidity 60    
Maximum Humidity 73    
Minimum Humidity 46    
Precipitation  
Precipitation 0.00 in 0.12 in 1.35 in (1982)
Month to date precipitation 0.08 0.57  
Year to date precipitation 16.54 14.44  
Snow  
Snow 0.00 in 0.00 in 0.00 in ()
Month to date snowfall 0.0 0.0  
Since 1 June snowfall 0.0 0.0  
Since 1 July snowfall 0.0 0.0  
Snow Depth 0.00 in    
Sea Level Pressure  
Sea Level Pressure 29.83 in    
Wind  
Wind Speed 12 mph (SSE)    
Max Wind Speed 22 mph    
Max Gust Speed 29 mph    
Visibility 10 miles    
Events      
T = Trace of Precipitation, MM = Missing Value Source: NWS Daily Summary

Daily Weather History Graph

Daily Weather History Graph

Search for Another Location

Airport or City:

Trip Planner

Search our weather history database for the weather conditions in past years. The results will help you decide how hot, cold, wet, or windy it might be!

Date:

Astronomy

Jul. 05, 2013 Rise Set
Actual Time 5:54 AM CDT 9:05 PM CDT
Civil Twilight 5:20 AM CDT 9:39 PM CDT
Nautical Twilight 4:36 AM CDT 10:23 PM CDT
Astronomical Twilight 3:43 AM CDT 11:16 PM CDT
Moon 3:56 AM CDT (7/5) 7:00 PM CDT (7/5)
Length of Visible Light 16h 19m
Length of Day
15h 10m
Waning Crescent, 6% of the Moon is Illuminated
Jul 5
Waning Crescent
Jul 8
New
Jul 15
First Quarter
Jul 22
Full
Jul 29
Last Quarter

Hourly Weather History & Observations

Time (CDT) Temp. Heat Index Dew Point Humidity Pressure Visibility Wind Dir Wind Speed Gust Speed Precip Events Conditions
12:52 AM 69.1 °F - 57.0 °F 65% 29.87 in 10.0 mi SE 8.1 mph - N/A   Clear
1:52 AM 69.1 °F - 57.0 °F 65% 29.86 in 10.0 mi SSE 8.1 mph - N/A   Mostly Cloudy
2:52 AM 69.1 °F - 55.9 °F 63% 29.86 in 10.0 mi SSE 10.4 mph - N/A   Partly Cloudy
3:52 AM 70.0 °F - 55.9 °F 61% 29.87 in 10.0 mi SSE 9.2 mph - N/A   Scattered Clouds
4:52 AM 69.1 °F - 57.0 °F 65% 29.86 in 10.0 mi SSE 9.2 mph - N/A   Partly Cloudy
5:52 AM 66.9 °F - 57.0 °F 70% 29.86 in 10.0 mi SE 8.1 mph - N/A   Clear
6:52 AM 66.0 °F - 57.9 °F 75% 29.84 in 10.0 mi ESE 10.4 mph - N/A   Clear
7:52 AM 68.0 °F - 57.9 °F 70% 29.86 in 10.0 mi East 6.9 mph - N/A   Mostly Cloudy
8:52 AM 70.0 °F - 61.0 °F 73% 29.85 in 10.0 mi ESE 8.1 mph - N/A   Partly Cloudy
9:52 AM 75.9 °F - 62.1 °F 62% 29.85 in 10.0 mi South 9.2 mph - N/A   Partly Cloudy
10:52 AM 80.1 °F 81.2 °F 62.1 °F 54% 29.85 in 10.0 mi South 16.1 mph 20.7 mph N/A   Clear
11:52 AM 82.0 °F 83.0 °F 62.1 °F 51% 29.85 in 10.0 mi SSW 18.4 mph - N/A   Clear
12:52 PM 84.0 °F 85.4 °F 64.0 °F 51% 29.83 in 10.0 mi SSW 16.1 mph 23.0 mph N/A   Partly Cloudy
1:52 PM 86.0 °F 87.6 °F 64.9 °F 49% 29.82 in 10.0 mi South 17.3 mph 24.2 mph N/A   Partly Cloudy
2:52 PM 88.0 °F 89.3 °F 64.0 °F 45% 29.81 in 10.0 mi South 16.1 mph 28.8 mph N/A   Clear
3:52 PM 87.1 °F 89.2 °F 66.0 °F 49% 29.80 in 10.0 mi South 16.1 mph 24.2 mph N/A   Clear
4:52 PM 87.1 °F 88.9 °F 64.9 °F 48% 29.80 in 10.0 mi South 19.6 mph 27.6 mph N/A   Clear
5:52 PM 86.0 °F 87.6 °F 64.9 °F 49% 29.79 in 10.0 mi South 12.7 mph - N/A   Partly Cloudy
6:52 PM 84.9 °F 86.1 °F 64.0 °F 49% 29.79 in 10.0 mi SSE 18.4 mph - N/A   Clear
7:52 PM 82.9 °F 84.0 °F 63.0 °F 51% 29.80 in 10.0 mi South 11.5 mph - N/A   Clear
8:52 PM 81.0 °F 82.5 °F 64.0 °F 56% 29.79 in 10.0 mi SSE 8.1 mph - N/A   Clear
9:52 PM 79.0 °F - 64.0 °F 60% 29.80 in 10.0 mi SSE 11.5 mph - N/A   Clear
10:52 PM 77.0 °F - 64.9 °F 66% 29.81 in 10.0 mi SSE 9.2 mph - N/A   Clear
11:52 PM 75.9 °F - 63.0 °F 64% 29.81 in 10.0 mi SSE 10.4 mph - N/A   Clear